Date,TemperatureHighF,TemperatureAvgF,TemperatureLowF,DewpointHighF,DewpointAvgF,DewpointLowF,HumidityHigh,HumidityAvg,HumidityLow,PressureMaxIn,PressureMinIn,WindSpeedMaxMPH,WindSpeedAvgMPH,GustSpeedMaxMPH,PrecipitationSumIn
2013-1-1,37.8,29.9,19.6,37.5,29.2,18.8,99,97,93,30.26,30.01,12,6,17,0.01
2013-1-2,41.9,28.1,15.8,31.8,24.4,15.6,99,87,65,30.26,30.14,9,3,14,0.00
2013-1-3,49.6,32.8,22.3,36.3,27.5,21.7,99,83,48,30.43,30.25,7,2,9,0.00
2013-1-4,53.6,35.2,20.7,31.3,26.4,20.4,99,74,38,30.42,30.27,12,4,16,0.00
2013-1-5,50.4,42.1,36.1,36.7,33.8,28.2,85,73,58,30.27,30.12,13,7,15,0.00
2013-1-6,53.2,35.3,25.5,29.5,25.8,21.5,93,72,37,30.38,30.23,11,3,11,0.00
2013-1-7,54.0,38.2,24.4,33.7,28.4,20.1,87,69,45,30.30,30.06,15,5,17,0.00
2013-1-8,57.9,44.1,34.9,48.1,37.1,29.0,99,78,54,30.16,29.99,12,5,18,0.06
2013-1-9,54.9,49.1,43.5,48.9,45.7,43.3,99,89,69,30.30,30.13,11,5,15,0.01
2013-1-10,57.0,52.0,48.9,56.8,51.2,46.3,99,97,81,30.11,29.76,14,6,17,0.15
2013-1-11,70.9,56.9,45.5,53.5,49.5,45.2,99,79,48,29.81,29.62,17,10,24,0.01
2013-1-12,61.7,37.8,24.8,54.4,31.4,22.8,99,80,42,30.04,29.76,21,5,21,0.05
2013-1-13,33.4,24.8,17.6,23.3,18.5,13.9,93,77,59,30.34,29.99,0,0,0,0.00
2013-1-14,35.4,25.0,15.8,22.3,18.1,13.4,91,76,54,30.45,30.30,14,2,14,0.01
2013-1-15,36.5,26.8,17.8,24.4,18.2,13.9,95,72,46,30.31,30.16,11,4,14,0.00
2013-1-16,51.3,34.6,17.1,25.4,20.6,13.8,94,60,33,30.19,30.06,9,3,11,0.00
2013-1-17,56.8,40.9,28.8,37.2,30.5,21.6,91,69,40,30.43,30.17,14,4,15,0.00
2013-1-18,60.1,46.0,32.9,36.7,33.3,29.2,86,64,37,30.45,30.13,18,8,22,0.00
2013-1-19,67.6,51.7,40.8,40.7,38.2,34.5,78,62,37,30.17,30.02,13,6,17,0.00
2013-1-20,65.7,45.2,31.3,42.6,32.8,20.5,89,64,42,30.27,30.08,17,6,18,0.00
2013-1-21,43.5,31.3,22.5,19.9,18.3,15.7,77,60,37,30.40,30.25,15,6,15,0.00
2013-1-22,53.6,34.4,18.0,32.4,24.5,15.3,90,70,43,30.29,30.13,11,3,15,0.00
2013-1-23,63.7,44.0,26.4,45.7,35.3,23.8,91,73,51,30.22,30.08,9,3,12,0.00
2013-1-24,43.5,38.2,34.3,34.8,25.9,21.5,71,61,51,30.26,30.06,19,8,19,0.00
2013-1-25,53.6,40.0,31.1,32.9,28.6,25.1,79,65,43,30.21,30.08,9,3,12,0.00
2013-1-26,58.1,44.4,29.7,37.7,32.4,26.8,91,65,38,30.22,30.07,14,5,18,0.00
2013-1-27,63.9,54.5,46.4,59.8,52.5,38.7,99,93,73,30.06,29.81,22,12,22,0.00
2013-1-28,76.6,68.8,59.0,66.3,64.7,58.7,99,88,69,29.88,29.69,22,12,22,0.00
2013-1-29,70.2,60.9,44.2,66.1,58.5,44.0,99,92,77,29.70,29.40,21,10,23,0.83
2013-1-30,41.9,35.7,25.2,41.1,29.9,22.4,97,80,59,30.03,29.56,21,10,21,0.00
2013-1-31,28.2,26.7,24.6,26.3,25.0,23.1,97,93,90,30.02,29.97,6,2,8,0.00